Temp
92 94 94 93 93 91 88 87 87 86 86 87 88 89 89 91 93 94 91 91 92 90 89 93 92 90 88 89 90 91 91 94 94 93 97 99 98 97 99 101 101 97 99
92 92 92 93 93 91 89 86 86 85 85 88 87 90 91 93 95 94 91 92 91 89 90 87 89 88 92 87 88 87 89 94 93 89 91 90 94 98 100 98 99 96 102
91 92 91 92 93 91 88 87 85 85 86 87 87 86 89 89 89 90 91 91 90 90 88 88 88 88 88 93 89 89 86 90 93 87 89 87 86 92 96 96 97 95 100
92 93 93 92 93 92 91 89 86 85 86 85 86 84 87 88 91 91 93 92 90 90 90 89 87 86 91 87 90 93 89 87 89 92 93 88 86 86 89 95 96 99 99
93 93 94 93 95 94 93 91 87 85 86 86 85 83 83 91 92 93 88 89 88 89 90 88 87 87 91 87 88 89 87 92 89 91 92 89 93 90 88 87 92 97 98
92 93 95 95 94 95 93 92 86 84 85 86 85 83 83 86 89 89 90 91 93 92 89 89 88 87 89 88 91 89 87 87 88 91 90 90 89 89 89 88 89 91 94
90 91 84 92 93 92 92 91 87 84 86 86 86 85 84 84 84 87 89 91 92 93 90 88 87 89 87 88 89 88 88 89 89 87 91 93 92 93 91 89 90 89 95
89 90 91 92 91 92 92 91 88 85 86 86 86 86 84 88 89 89 92 92 93 94 92 90 90 89 89 89 89 91 91 90 90 87 87 92 93 94 91 88 88 87 92
86 88 91 92 92 92 91 91 89 87 88 89 87 86 86 85 89 89 90 92 90 94 91 91 90 90 90 89 89 89 88 88 88 88 87 88 93 92 92 90 88 86 83
84 85 88 90 93 94 94 93 92 89 89 90 90 89 88 87 88 88 86 89 90 89 89 89 89 90 89 89 87 90 88 87 89 91 86 87 90 91 90 85 91 89 82
82 83 86 89 91 93 94 94 92 91 90 91 90 89 90 90 88 88 88 88 89 89 87 88 88 88 89 89 86 86 88 87 87 88 87 87 88 91 90 86 89 86 83
82 84 84 86 86 88 89 92 92 92 92 92 89 89 90 90 91 88 89 89 87 89 88 89 88 88 88 89 87 86 89 88 86 87 88 88 92 87 87 91 87 88 87
82 80 83 84 83 84 83 85 90 92 93 92 91 90 90 90 89 90 89 89 88 88 91 89 86 87 88 87 88 87 87 88 87 89 88 87 88 86 89 87 89 92 91
80 82 72 76 79 81 81 81 85 88 91 93 91 89 89 91 91 90 89 89 88 87 88 89 88 88 88 88 88 86 87 87 89 87 87 89 88 86 84 86 85 88 86
82 82 81 74 69 74 78 79 82 85 84 86 89 88 88 89 89 89 88 88 88 88 88 88 87 88 89 91 88 87 88 86 87 87 87 89 82 71 73 82 84 81 80
81 81 81 79 73 71 73 77 77 77 85 82 84 86 86 86 86 86 86 86 86 86 87 87 87 87 91 77 71 78 86 86 86 86 87 87 76 73 67 67 66 70 80
80 80 79 78 78 78 77 72 78 80 80 82 83 82 83 83 83 84 84 84 84 86 84 85 86 86 87 66 67 69 85 85 81 85 85 84 86 79 82 67 66 67 66
79 79 82 79 78 79 79 77 73 77 78 78 79 80 80 80 81 80 81 82 84 84 84 85 85 85 81 62 64 68 82 84 83 83 83 82 81 79 78 79 78 76 75
80 81 82 79 77 77 77 77 78 78 76 77 78 78 80 80 80 80 81 82 80 80 81 84 84 82 74 60 62 69 79 78 77 79 79 79 79 62 63 77 75 74 69
82 81 80 80 79 77 79 77 78 78 76 76 73 76 79 79 78 77 80 80 79 77 77 75 77 69 73 59 60 68 75 74 75 74 71 60 63 58 60 75 73 70 64
81 80 80 80 79 78 78 76 76 76 77 74 71 69 71 72 72 77 75 77 74 71 70 67 67 69 68 66 57 61 75 78 75 74 72 71 56 55 57 62 72 65 65
80 80 81 80 80 75 73 70 73 75 77 77 74 67 70 71 72 74 75 73 68 66 64 63 62 63 65 59 57 58 62 64 69 65 62 59 53 53 56 61 56 58 63
80 83 83 79 79 74 71 69 68 72 71 72 70 68 65 66 66 65 63 62 64 62 61 61 60 58 59 58 55 56 57 59 66 63 58 54 53 54 59 57 58 58 75
79 81 79 79 77 75 74 71 68 68 69 70 68 67 66 64 64 62 62 61 60 60 59 59 57 57 58 58 59 59 58 58 59 59 59 57 59 59 63 66 69 77 77
80 79 78 79 77 77 72 73 70 66 66 65 64 64 63 60 58 53 53 59 57 59 60 59 59 58 57 57 55 57 60 60 57 58 60 64 67 68 69 69 71 74 76
78 77 77 77 77 77 75 73 71 66 63 61 61 63 61 59 58 56 54 48 48 47 46 49 61 63 51 46 46 46 47 49 51 61 62 65 66 66 67 67 68 71 70
MSLP
1010.49 1011.22 1012.02 1012.78 1013.49 1014.17 1015.07 1015.70 1016.18 1016.72 1017.07 1017.20 1017.12 1017.04 1016.89 1017.02 1017.15 1017.23 1017.68 1017.81 1017.95 1018.20 1018.50 1018.18 1018.27 1018.31 1018.17 1018.04 1018.10 1017.78 1017.61 1017.06 1017.29 1016.79 1015.71 1015.42 1015.95 1016.06 1015.79 1015.66 1015.67 1015.93 1016.05
1010.01 1010.79 1011.50 1012.07 1012.81 1013.55 1014.45 1015.34 1015.95 1016.49 1016.89 1016.94 1017.13 1016.86 1016.82 1016.77 1016.83 1017.05 1017.42 1017.66 1017.92 1018.27 1018.34 1018.57 1018.30 1018.26 1017.98 1018.18 1018.27 1018.28 1017.76 1017.29 1017.60 1017.12 1016.29 1015.26 1015.21 1015.37 1015.50 1015.86 1015.90 1015.99 1015.67
1009.40 1009.99 1010.88 1011.46 1012.22 1012.90 1013.82 1014.71 1015.58 1016.09 1016.57 1016.77 1017.06 1017.31 1017.11 1017.03 1017.04 1017.12 1017.25 1017.38 1017.81 1018.08 1018.34 1018.30 1018.30 1018.19 1018.17 1017.81 1018.28 1018.30 1018.19 1017.34 1017.60 1017.91 1017.23 1015.89 1015.45 1015.56 1015.74 1015.91 1015.83 1015.93 1015.49
1009.11 1009.38 1010.04 1010.81 1011.41 1012.23 1013.18 1014.05 1015.10 1015.75 1016.30 1016.70 1016.65 1016.79 1016.46 1016.15 1016.22 1016.54 1016.70 1017.11 1017.61 1017.87 1017.98 1018.17 1018.27 1018.34 1017.98 1018.26 1018.22 1018.23 1018.25 1018.09 1017.43 1017.56 1017.53 1017.76 1017.59 1016.33 1015.00 1015.34 1015.57 1015.66 1015.20
1008.46 1008.80 1009.34 1010.07 1010.77 1011.76 1012.52 1013.40 1014.61 1015.28 1015.76 1016.25 1016.62 1016.98 1016.80 1015.99 1016.29 1016.41 1016.88 1017.07 1017.46 1017.63 1017.63 1018.01 1018.14 1018.11 1017.74 1018.28 1018.34 1018.24 1018.28 1017.96 1017.92 1017.55 1017.43 1017.53 1017.17 1017.21 1016.52 1015.36 1015.01 1014.95 1015.46
1008.22 1008.56 1009.14 1009.66 1010.31 1011.19 1012.04 1012.82 1013.98 1014.73 1015.45 1015.87 1016.45 1016.90 1016.82 1016.39 1016.07 1016.32 1016.35 1016.40 1016.64 1016.99 1017.37 1017.55 1017.81 1017.99 1017.80 1018.10 1018.01 1018.12 1018.23 1018.36 1018.19 1017.89 1017.88 1017.30 1016.95 1016.63 1016.56 1016.03 1015.57 1015.26 1015.16
1008.13 1008.53 1009.57 1009.40 1009.96 1010.59 1011.50 1012.27 1013.35 1014.10 1014.75 1015.32 1015.70 1016.24 1016.55 1016.85 1016.85 1016.55 1016.36 1015.90 1016.08 1016.17 1016.69 1017.23 1017.54 1017.60 1017.92 1017.87 1017.81 1018.04 1018.14 1018.17 1018.02 1018.09 1017.52 1017.48 1017.26 1017.09 1016.94 1016.66 1015.83 1015.58 1015.29
1008.08 1008.32 1008.61 1009.04 1009.79 1010.25 1010.96 1011.71 1012.60 1013.38 1014.01 1014.57 1015.14 1015.62 1016.20 1016.33 1016.24 1016.17 1015.86 1015.95 1015.75 1015.84 1016.01 1016.76 1016.90 1017.20 1017.40 1017.51 1017.71 1017.75 1017.82 1018.08 1018.14 1018.23 1018.12 1017.46 1017.19 1017.16 1017.38 1017.23 1016.64 1015.83 1015.10
1008.20 1008.26 1008.41 1008.87 1009.27 1009.85 1010.48 1011.10 1011.75 1012.62 1013.23 1013.76 1014.54 1015.07 1015.55 1015.91 1015.53 1015.80 1016.04 1016.05 1016.16 1015.83 1016.26 1016.42 1016.72 1016.87 1017.06 1017.16 1017.25 1017.74 1017.92 1018.04 1018.06 1018.02 1018.04 1017.89 1017.37 1017.52 1017.48 1017.70 1017.57 1017.00 1015.93
1008.78 1008.78 1008.71 1008.75 1008.96 1009.40 1009.98 1010.76 1011.26 1011.80 1012.44 1013.09 1013.75 1014.27 1014.72 1015.21 1015.44 1015.71 1016.06 1015.93 1015.96 1016.21 1016.15 1016.57 1016.71 1016.81 1016.90 1016.92 1017.46 1017.39 1017.80 1017.93 1017.85 1017.51 1017.93 1017.80 1017.58 1017.27 1017.53 1017.92 1017.09 1016.74 1017.00
1008.95 1009.04 1008.87 1008.84 1008.99 1009.30 1009.64 1010.15 1010.88 1011.30 1011.83 1012.27 1012.84 1013.45 1013.90 1014.43 1014.98 1015.14 1015.51 1015.78 1015.93 1016.02 1016.18 1016.33 1016.49 1016.54 1016.73 1016.93 1017.17 1017.50 1017.48 1017.62 1017.56 1017.55 1017.54 1017.45 1017.53 1017.09 1016.92 1017.37 1017.20 1017.24 1017.33
1009.01 1009.04 1009.25 1009.26 1009.60 1009.74 1010.13 1010.02 1010.36 1010.78 1011.11 1011.55 1012.24 1012.69 1013.25 1013.74 1014.03 1014.63 1014.88 1015.21 1015.55 1015.76 1015.89 1016.05 1016.34 1016.36 1016.78 1016.85 1016.88 1017.09 1016.95 1017.06 1017.13 1017.13 1017.12 1017.16 1016.82 1017.14 1017.05 1016.67 1016.85 1016.59 1016.83
1009.16 1009.56 1009.54 1009.74 1010.17 1010.60 1010.83 1010.84 1010.48 1010.50 1010.60 1011.06 1011.53 1012.07 1012.36 1012.88 1013.27 1013.65 1014.29 1014.65 1015.01 1015.29 1015.36 1015.72 1016.10 1016.39 1016.59 1016.83 1016.85 1016.86 1016.92 1016.86 1016.93 1016.74 1016.77 1016.98 1016.95 1016.98 1016.67 1016.99 1016.65 1015.99 1016.00
1009.11 1009.55 1010.53 1010.69 1010.97 1010.97 1011.13 1011.33 1011.04 1010.82 1010.52 1010.54 1010.99 1011.47 1011.89 1012.11 1012.52 1013.03 1013.59 1014.00 1014.46 1014.77 1014.91 1015.23 1015.59 1015.94 1016.26 1016.51 1016.67 1016.70 1016.77 1016.70 1016.48 1016.72 1016.67 1016.61 1016.63 1016.86 1017.13 1016.90 1016.95 1016.49 1016.53
1008.97 1009.45 1009.98 1010.89 1011.32 1011.31 1011.32 1011.55 1011.36 1010.92 1011.11 1011.04 1010.84 1011.13 1011.61 1011.94 1012.21 1012.58 1013.01 1013.53 1013.85 1014.15 1014.37 1014.61 1015.06 1015.42 1015.76 1015.91 1016.29 1016.48 1016.31 1016.37 1016.30 1016.48 1016.57 1016.44 1016.76 1017.32 1017.38 1017.42 1016.98 1017.09 1016.94
1008.92 1009.46 1009.91 1010.42 1011.03 1011.21 1011.40 1011.32 1011.59 1011.26 1010.89 1011.08 1010.89 1011.01 1011.26 1011.66 1011.96 1012.33 1012.75 1013.10 1013.43 1013.68 1013.91 1014.13 1014.35 1014.68 1014.95 1015.13 1015.92 1016.25 1016.17 1016.06 1016.07 1015.98 1016.17 1016.54 1017.13 1017.51 1017.73 1017.82 1017.77 1017.81 1017.48
1009.01 1009.49 1009.94 1010.42 1010.88 1011.07 1011.20 1011.63 1011.68 1011.53 1011.22 1010.88 1010.79 1011.09 1011.35 1011.61 1011.77 1012.04 1012.37 1012.65 1012.94 1013.21 1013.50 1013.75 1014.04 1014.31 1014.68 1015.24 1015.80 1016.19 1016.05 1016.06 1016.29 1016.06 1016.27 1016.53 1016.68 1017.27 1017.26 1018.05 1018.13 1018.23 1018.18
1009.18 1009.64 1010.00 1010.47 1010.87 1011.16 1011.23 1011.47 1011.58 1011.33 1011.32 1011.12 1011.11 1011.30 1011.52 1011.69 1011.70 1011.86 1011.89 1012.08 1012.36 1012.60 1012.97 1013.23 1013.51 1013.88 1014.54 1015.37 1015.78 1016.05 1015.85 1015.76 1016.00 1016.26 1016.49 1016.69 1016.93 1017.44 1017.60 1017.52 1017.86 1018.36 1018.58
1009.26 1009.78 1010.16 1010.60 1010.95 1011.11 1011.31 1011.52 1011.33 1011.52 1011.58 1011.27 1011.38 1011.51 1011.53 1011.61 1011.52 1011.50 1011.55 1011.70 1012.01 1012.18 1012.48 1012.63 1012.93 1013.55 1014.97 1015.48 1015.56 1015.63 1015.69 1016.08 1016.49 1016.91 1017.08 1017.25 1017.41 1018.23 1018.21 1017.75 1017.96 1018.49 1019.25
1009.29 1009.78 1010.21 1010.65 1010.85 1011.12 1011.36 1011.29 1011.34 1011.26 1011.37 1011.52 1011.74 1011.65 1011.52 1011.57 1011.51 1011.49 1011.32 1011.54 1011.94 1012.49 1012.96 1013.31 1013.51 1014.06 1014.88 1015.47 1015.23 1015.41 1015.79 1016.14 1016.60 1017.35 1017.91 1018.10 1018.39 1018.53 1018.40 1018.08 1018.39 1018.94 1019.69
1009.50 1009.96 1010.34 1010.49 1010.83 1011.18 1011.31 1011.18 1011.24 1011.26 1011.24 1011.57 1011.80 1011.59 1011.76 1011.94 1011.85 1011.57 1011.79 1011.72 1012.40 1013.04 1013.68 1014.21 1014.63 1014.85 1015.12 1015.42 1015.43 1015.19 1015.49 1015.87 1016.51 1017.08 1017.69 1018.39 1018.73 1018.59 1018.69 1018.69 1018.80 1019.22 1019.67
1009.55 1009.92 1010.13 1010.47 1010.92 1011.43 1011.63 1011.55 1011.34 1011.38 1011.30 1011.35 1011.61 1011.82 1011.78 1011.80 1011.74 1011.36 1011.58 1011.82 1012.57 1013.30 1013.83 1014.32 1014.89 1015.34 1015.41 1015.53 1016.05 1015.78 1015.65 1016.39 1016.92 1017.71 1018.56 1018.86 1019.08 1019.36 1018.78 1019.23 1019.40 1019.62 1019.48
1009.36 1009.65 1009.96 1010.37 1010.88 1011.49 1011.67 1011.62 1011.86 1011.93 1011.80 1011.91 1012.28 1012.42 1012.44 1012.43 1012.59 1012.49 1012.32 1012.59 1013.10 1013.45 1013.97 1014.31 1014.93 1015.52 1015.75 1015.73 1016.23 1016.20 1016.93 1016.84 1017.30 1017.82 1018.59 1018.75 1019.64 1019.61 1019.01 1019.70 1019.78 1019.62 1019.10
1009.32 1009.61 1010.00 1010.28 1010.64 1011.37 1011.60 1011.85 1012.17 1012.19 1012.05 1012.26 1012.84 1013.02 1012.88 1013.17 1013.36 1013.23 1013.34 1013.63 1013.86 1014.08 1014.20 1014.70 1015.23 1015.70 1015.96 1016.26 1016.61 1016.83 1017.24 1018.15 1018.08 1018.68 1018.65 1019.23 1019.59 1019.28 1019.43 1019.42 1019.44 1019.12 1018.90
1009.28 1009.60 1009.92 1010.21 1010.57 1011.07 1011.67 1011.91 1012.26 1012.39 1012.44 1012.77 1013.06 1013.37 1013.56 1013.68 1014.24 1015.00 1014.62 1014.61 1014.65 1014.64 1014.91 1015.35 1015.71 1016.01 1016.53 1017.03 1016.99 1016.88 1017.18 1018.04 1018.50 1018.78 1018.47 1019.14 1019.18 1019.22 1019.35 1019.35 1019.60 1019.46 1019.32
1009.22 1009.65 1009.98 1010.21 1010.55 1010.95 1011.40 1011.85 1012.22 1012.48 1012.78 1012.93 1013.23 1013.55 1013.86 1014.16 1014.61 1014.98 1015.30 1015.61 1015.54 1015.24 1015.42 1015.95 1015.87 1016.71 1017.07 1017.07 1017.16 1017.56 1017.94 1018.31 1018.48 1018.57 1018.60 1018.74 1018.99 1019.18 1019.45 1019.48 1019.63 1019.68 1019.63
Wind_Speed
10 9 11 11 10 10 11 11 11 10 7 7 6 6 6 4 4 3 3 2 2 2 1 2 1 2 4 4 3 4 2 4 5 7 5 3 3 4 3 3 3 3 1
10 10 10 12 12 12 11 11 10 11 9 7 5 4 4 4 3 3 3 3 3 4 3 2 2 2 3 3 3 3 6 2 4 6 7 4 4 4 4 4 2 5 1
12 12 12 12 13 12 12 12 12 12 10 7 5 5 4 4 5 5 6 5 5 5 4 2 3 2 3 1 2 1 2 4 2 5 4 5 6 4 3 2 4 4 1
11 10 13 13 15 13 12 12 12 12 11 10 7 8 7 7 5 4 4 5 6 5 4 2 3 3 2 2 1 1 3 4 3 2 2 4 4 6 2 5 3 2 3
11 13 13 13 13 13 13 13 12 12 11 11 9 6 9 6 6 5 5 4 5 6 5 5 4 4 4 3 1 1 1 2 5 4 2 2 2 1 5 7 5 3 3
12 10 10 11 11 13 13 14 14 13 13 12 12 11 8 7 5 5 6 6 6 7 6 6 5 4 2 4 2 2 2 4 4 4 3 4 5 4 4 5 4 5 4
13 10 10 13 13 15 15 14 15 15 14 14 12 12 11 8 7 7 7 5 5 5 8 7 6 6 5 4 3 3 3 3 5 3 5 2 4 4 5 5 5 4 3
11 13 12 15 13 15 16 16 16 15 15 14 13 12 11 8 7 9 7 6 6 5 6 8 6 6 6 5 4 5 5 0 4 5 4 6 4 4 3 5 7 6 3
4 5 12 12 14 15 15 16 16 15 16 16 13 13 11 11 9 7 6 8 6 5 6 8 7 7 7 7 5 4 5 4 5 4 5 7 4 3 4 3 5 6 7
1 4 7 11 13 14 14 14 15 15 15 14 13 12 13 12 12 8 10 8 5 6 5 8 8 7 7 7 7 4 5 5 5 7 4 4 5 4 5 5 7 4 4
4 5 5 8 9 11 13 13 13 14 14 14 14 13 13 14 13 11 10 10 9 8 7 7 7 6 6 7 7 6 6 7 6 7 5 5 4 7 5 4 7 4 4
5 4 3 3 6 6 8 10 11 13 13 13 13 14 13 13 13 12 12 10 10 9 8 7 7 7 5 5 6 6 6 5 7 7 5 6 5 4 6 7 1 4 4
2 5 6 2 4 2 5 8 10 12 12 13 14 14 14 14 14 14 13 11 10 10 9 8 8 7 6 6 7 6 7 8 8 6 6 6 6 5 7 5 6 4 3
1 4 4 4 2 2 1 6 9 10 11 11 12 13 14 15 14 13 13 13 11 11 10 10 9 8 7 8 9 6 8 8 7 7 7 7 6 7 6 6 5 6 6
1 0 2 2 1 0 1 2 6 7 8 12 11 11 11 12 12 12 12 12 12 12 12 11 10 10 9 7 7 7 9 8 7 8 7 8 4 5 5 4 7 6 5
1 2 2 1 0 2 3 3 1 3 5 9 10 10 10 11 12 12 12 12 13 13 12 12 12 12 9 9 10 7 8 8 9 8 7 6 5 5 6 6 10 9 7
1 3 3 4 2 3 1 4 4 3 2 6 8 7 8 10 11 12 13 13 13 13 13 12 12 12 12 8 5 5 7 7 6 8 7 6 3 4 5 7 9 8 6
1 0 1 1 1 1 1 2 5 6 5 3 3 6 8 10 10 9 10 12 13 13 13 13 13 11 4 10 9 6 7 6 4 3 4 6 2 2 6 5 3 5 7
4 2 1 0 3 4 2 4 4 3 5 6 6 5 6 6 9 11 12 12 9 9 11 12 12 11 8 10 10 7 4 5 4 2 2 4 3 7 7 4 5 5 7
5 4 3 1 3 4 5 5 6 5 5 5 4 7 7 9 8 6 8 8 5 6 4 3 3 7 9 8 10 8 6 6 5 5 6 10 7 6 6 3 7 6 5
5 4 1 2 3 4 5 6 6 8 4 3 4 2 5 10 7 10 8 8 7 7 7 6 4 6 6 7 7 10 8 7 7 6 5 6 6 7 8 6 6 7 7
6 4 2 1 2 4 5 5 6 2 2 1 3 4 4 4 7 8 9 7 8 8 8 8 6 3 5 6 4 7 10 9 9 7 5 5 6 7 10 9 10 9 8
5 3 1 1 2 3 3 3 3 3 2 3 4 4 6 6 5 4 5 4 5 6 6 6 7 5 4 6 11 13 11 12 10 7 9 10 7 11 12 6 6 8 4
6 5 3 1 3 2 3 1 2 3 3 5 5 3 6 6 6 5 5 5 4 3 5 6 5 4 4 5 6 7 10 11 10 9 6 6 7 11 8 7 5 1 2
7 6 4 2 1 1 2 2 1 2 2 4 5 5 4 6 7 7 5 4 4 3 4 4 4 5 5 3 4 8 8 6 7 7 5 4 5 5 5 5 4 3 4
8 7 6 4 1 1 1 1 2 3 4 4 3 4 5 5 4 4 6 17 11 14 12 8 5 5 8 9 11 12 12 12 10 5 5 6 6 5 5 5 5 5 3
Wind_Direction
179 186 185 179 184 178 179 187 187 175 189 186 200 201 202 174 191 206 187 182 203 171 222 296 292 296 273 327 294 304 350 331 356 293 319 288 248 246 264 1 7 74 247
204 191 201 192 193 183 183 184 193 183 197 190 211 237 224 193 194 191 183 197 182 193 210 292 278 17 305 262 300 319 312 303 10 325 298 315 156 102 62 40 20 16 21
218 196 204 205 197 191 191 183 186 187 194 210 190 200 193 188 193 182 204 180 196 199 220 258 278 253 292 329 327 325 347 337 30 358 330 314 19 309 127 89 41 342 146
220 218 197 206 202 195 188 184 180 186 189 186 199 216 215 208 193 197 165 167 191 196 214 210 190 207 300 351 157 169 334 307 359 238 33 0 358 348 317 163 112 328 20
238 211 208 199 205 188 190 182 177 184 201 191 224 194 254 221 188 188 148 213 173 207 185 179 169 183 222 151 243 248 326 298 327 339 332 311 276 237 321 327 2 165 71
229 232 220 203 201 188 191 181 181 185 195 196 199 219 233 257 229 209 190 195 194 180 184 185 195 198 232 203 201 246 241 305 320 320 300 310 323 334 310 310 289 320 106
234 223 211 222 201 192 193 186 185 190 195 199 203 211 219 226 239 217 216 222 193 203 164 196 192 199 208 218 244 223 294 256 298 306 312 302 299 313 323 312 298 282 352
221 232 214 213 208 203 197 196 187 195 193 199 202 208 210 229 228 219 250 223 226 207 155 192 201 204 214 216 208 238 260 119 269 283 277 291 314 302 262 289 306 314 281
330 246 239 228 206 208 205 202 196 198 198 199 198 204 206 219 239 247 219 225 237 232 210 209 206 215 221 224 228 222 249 258 253 264 257 267 283 255 295 269 297 297 307
9 343 256 224 222 210 209 208 205 202 204 207 202 206 209 212 221 220 231 252 254 236 230 223 208 217 224 225 217 243 233 263 264 262 237 270 262 260 238 249 284 299 300
330 328 297 220 216 218 213 206 209 209 206 205 209 211 208 212 215 218 220 227 229 232 233 232 243 225 237 228 226 220 266 256 258 271 254 262 276 279 225 194 254 267 251
12 357 57 187 197 220 236 232 217 212 213 213 209 215 215 218 216 220 221 219 221 225 234 238 231 236 238 235 237 243 288 246 250 246 246 255 263 248 228 266 305 291 263
33 37 48 101 126 171 233 243 247 231 224 213 216 216 215 215 221 218 221 220 217 220 229 222 231 239 245 243 252 251 255 254 258 257 258 264 272 272 302 292 304 288 287
68 84 95 38 47 7 254 267 261 251 242 220 218 221 224 223 221 218 218 218 217 223 221 227 228 234 240 253 253 257 252 257 251 257 259 261 256 248 260 268 284 266 288
204 358 332 99 314 274 146 266 278 243 229 242 226 224 230 232 232 224 216 217 214 215 223 220 222 226 231 234 247 254 262 247 255 260 258 244 313 38 19 288 269 274 286
265 307 315 18 43 17 35 56 88 321 225 215 230 229 224 227 226 224 221 214 216 217 215 222 224 223 231 180 188 234 257 260 266 263 260 266 168 135 92 67 57 35 314
346 324 331 313 233 229 105 318 319 335 299 237 215 219 229 230 224 222 220 218 217 218 217 220 222 225 231 117 132 199 241 252 258 260 258 268 153 248 171 135 129 86 55
148 113 305 308 273 281 292 335 314 302 283 306 225 223 223 230 226 225 220 218 216 214 214 215 217 222 157 126 134 167 237 237 249 294 282 286 254 34 299 172 135 66 46
122 98 34 237 244 264 226 266 279 282 267 255 249 247 231 238 228 223 219 220 216 216 214 213 207 206 160 162 160 183 150 159 181 180 48 326 272 40 306 252 159 110 89
122 126 116 173 252 251 267 260 269 270 264 256 274 280 257 257 239 240 199 187 186 158 147 143 160 143 165 179 161 171 161 165 144 126 91 54 43 359 334 237 152 146 132
141 133 141 325 350 303 300 271 256 260 304 187 275 302 239 239 244 236 241 234 190 164 152 134 112 144 166 168 189 161 161 155 152 140 115 82 44 54 40 14 131 133 134
154 179 174 44 23 335 296 299 265 312 281 32 15 0 337 229 237 237 236 186 155 156 153 146 129 120 119 72 155 132 122 136 131 119 96 88 77 76 80 82 110 138 174
165 183 217 135 63 322 316 304 325 356 265 102 65 69 58 50 56 66 65 88 150 156 155 152 143 136 106 86 79 90 100 101 119 114 110 124 138 128 93 96 151 197 169
189 190 200 282 341 336 296 312 334 283 236 148 122 100 98 74 54 76 86 80 70 105 119 119 116 103 98 102 109 107 94 95 91 107 109 95 76 61 108 154 196 211 73
192 196 207 221 358 11 310 308 59 334 112 129 134 125 96 91 85 52 35 57 46 52 102 103 117 128 125 116 118 128 119 125 122 124 126 153 135 107 102 88 88 127 138
191 196 203 204 222 245 160 345 88 117 130 123 120 118 121 112 105 104 84 48 41 57 54 60 113 84 87 119 107 101 104 118 150 136 126 121 129 131 137 139 136 129 123